Location: Newark
(7.0858°N, 171.3717°E)
Time: 15:04:22
(UTC+00:00)

Courier 1B Rocket - Pass Details

Date: 30 November 2020
Orbit: 920 x 1202 km, 28.2° (Epoch: 20 January)

Event Time Altitude Azimuth Distance (km) Brightness Sun altitude
Rises 13:12:31 0° 226° (SW) 3,814 - -71.1°
Reaches altitude 10° 13:15:17 10° 220° (SW) 2,903 - -70.7°
Maximum altitude 13:22:08 47° 149° (SSE) 1,461 - -69.6°
Drops below altitude 10° 13:29:22 10° 77° (ENE) 3,079 - -68.3°
Sets 13:32:23 0° 72° (ENE) 4,065 - -67.8°
